• In Hungary
  • List of Countries
  • For 7 days
  • Water Temperature
  • Satellite Maps
  • Weather Map
  • News
  • Weather Widgets
  • user-avatar
    Login

    Hourly Weather San José de Galipán

    Today, 15 November, Thursday

    Time Temperature Precipitation Wind Pressure Humidity
    00:00 +19°C° 0.3 mm 4 mps 656 mmHg 96%
    01:00 +19°C° 0.3 mm 3 mps 655 mmHg 96%
    02:00 +19°C° 0 mm 3 mps 655 mmHg 96%
    03:00 +19°C° 0.6 mm 3 mps 655 mmHg 96%
    04:00 +19°C° 0.6 mm 3 mps 655 mmHg 96%
    05:00 +19°C° 0.6 mm 3 mps 655 mmHg 96%
    06:00 +19°C° 0.5 mm 3 mps 655 mmHg 95%
    07:00 +19°C° 0.5 mm 3 mps 656 mmHg 95%
    08:00 +20°C° 0 mm 4 mps 656 mmHg 94%
    09:00 +20°C° 0.7 mm 4 mps 657 mmHg 91%
    10:00 +21°C° 0.7 mm 3 mps 657 mmHg 88%
    11:00 +22°C° 0.7 mm 3 mps 657 mmHg 85%
    12:00 +22°C° 2.3 mm 4 mps 656 mmHg 86%
    13:00 +22°C° 2.3 mm 4 mps 656 mmHg 88%
    14:00 +22°C° 2.3 mm 4 mps 655 mmHg 90%
    15:00 +22°C° 2.8 mm 4 mps 655 mmHg 91%
    16:00 +21°C° 2.8 mm 4 mps 654 mmHg 93%
    17:00 +20°C° 2.8 mm 4 mps 654 mmHg 94%
    18:00 +20°C° 2.8 mm 4 mps 655 mmHg 95%
    19:00 +20°C° 2.8 mm 4 mps 655 mmHg 95%
    20:00 +20°C° 2.8 mm 4 mps 655 mmHg 96%
    21:00 +20°C° 1.8 mm 5 mps 656 mmHg 96%
    22:00 +19°C° 1.8 mm 5 mps 656 mmHg 96%
    23:00 +19°C° 1.8 mm 5 mps 656 mmHg 96%

    Tomorrow, 16 November, Friday

    Time Temperature Precipitation Wind Pressure Humidity
    00:00 +19°C° 0.9 mm 5 mps 656 mmHg 96%
    01:00 +19°C° 0.9 mm 4 mps 656 mmHg 96%
    02:00 +19°C° 0.9 mm 4 mps 656 mmHg 96%
    03:00 +19°C° 0.4 mm 4 mps 655 mmHg 96%
    04:00 +19°C° 0.4 mm 4 mps 655 mmHg 96%
    05:00 +19°C° 0.4 mm 4 mps 655 mmHg 96%
    06:00 +19°C° 0.1 mm 4 mps 655 mmHg 95%
    07:00 +19°C° 0.1 mm 4 mps 656 mmHg 94%
    08:00 +20°C° 0.1 mm 3 mps 656 mmHg 93%
    09:00 +21°C° 0.3 mm 4 mps 657 mmHg 90%
    10:00 +22°C° 0.3 mm 4 mps 657 mmHg 87%
    11:00 +22°C° 0.3 mm 4 mps 657 mmHg 84%
    12:00 +22°C° 1 mm 4 mps 656 mmHg 85%
    13:00 +23°C° 1 mm 4 mps 656 mmHg 85%
    14:00 +23°C° 1 mm 4 mps 655 mmHg 86%
    15:00 +22°C° 0.9 mm 4 mps 655 mmHg 88%
    16:00 +21°C° 0.9 mm 4 mps 654 mmHg 90%
    17:00 +21°C° 0.9 mm 4 mps 654 mmHg 92%
    18:00 +20°C° 0.6 mm 4 mps 654 mmHg 93%
    19:00 +20°C° 0.6 mm 4 mps 655 mmHg 94%
    20:00 +19°C° 0.6 mm 4 mps 655 mmHg 95%
    21:00 +19°C° 0.3 mm 4 mps 655 mmHg 95%
    22:00 +19°C° 0.3 mm 4 mps 656 mmHg 95%
    23:00 +19°C° 0.3 mm 4 mps 656 mmHg 96%

    Day after tomorrow, 17 November, Saturday

    Time Temperature Precipitation Wind Pressure Humidity
    00:00 +19°C° 0.4 mm 4 mps 656 mmHg 96%
    01:00 +19°C° 0.4 mm 4 mps 655 mmHg 96%
    02:00 +19°C° 0.4 mm 4 mps 655 mmHg 96%
    03:00 +19°C° 0.4 mm 4 mps 655 mmHg 96%
    04:00 +19°C° 0.4 mm 4 mps 655 mmHg 96%
    05:00 +18°C° 0.4 mm 3 mps 655 mmHg 95%
    06:00 +19°C° 0.6 mm 3 mps 655 mmHg 95%
    07:00 +19°C° 0.6 mm 3 mps 656 mmHg 94%
    08:00 +19°C° 0.6 mm 3 mps 657 mmHg 93%
    09:00 +20°C° 0.7 mm 3 mps 657 mmHg 92%
    10:00 +21°C° 0.7 mm 3 mps 657 mmHg 90%
    11:00 +21°C° 0.7 mm 3 mps 658 mmHg 88%
    12:00 +21°C° 1.1 mm 3 mps 657 mmHg 88%
    13:00 +22°C° 1.1 mm 3 mps 656 mmHg 87%
    14:00 +22°C° 1.1 mm 3 mps 655 mmHg 87%
    15:00 +21°C° 1.7 mm 3 mps 655 mmHg 88%
    16:00 +21°C° 1.7 mm 4 mps 655 mmHg 89%
    17:00 +21°C° 1.7 mm 4 mps 655 mmHg 90%
    18:00 +20°C° 0.9 mm 4 mps 655 mmHg 92%
    19:00 +20°C° 0.9 mm 4 mps 655 mmHg 93%
    20:00 +19°C° 0.9 mm 4 mps 656 mmHg 94%
    21:00 +19°C° 0.1 mm 4 mps 656 mmHg 95%
    22:00 +19°C° 0.1 mm 4 mps 656 mmHg 95%
    23:00 +19°C° 0.1 mm 4 mps 656 mmHg 95%

    18 November, Sunday

    Time Temperature Precipitation Wind Pressure Humidity
    00:00 +19°C° 0 mm 4 mps 656 mmHg 95%
    01:00 +18°C° 0 mm 3 mps 656 mmHg 95%
    02:00 +18°C° 0 mm 3 mps 655 mmHg 96%
    03:00 +18°C° 0 mm 3 mps 655 mmHg 95%
    04:00 +18°C° 0 mm 3 mps 655 mmHg 95%
    05:00 +18°C° 0 mm 3 mps 655 mmHg 95%
    06:00 +19°C° 0.1 mm 3 mps 656 mmHg 93%
    07:00 +19°C° 0.1 mm 3 mps 656 mmHg 92%
    08:00 +20°C° 0.1 mm 3 mps 657 mmHg 90%
    09:00 +21°C° 0.1 mm 3 mps 657 mmHg 83%
    10:00 +24°C° 0.1 mm 3 mps 658 mmHg 76%
    11:00 +25°C° 0.1 mm 4 mps 658 mmHg 68%
    12:00 +25°C° 1.4 mm 4 mps 657 mmHg 73%
    13:00 +25°C° 1.4 mm 4 mps 656 mmHg 78%
    14:00 +23°C° 1.4 mm 4 mps 656 mmHg 82%
    15:00 +23°C° 1.8 mm 4 mps 655 mmHg 85%
    16:00 +22°C° 1.8 mm 4 mps 655 mmHg 87%
    17:00 +21°C° 1.8 mm 4 mps 655 mmHg 89%
    18:00 +21°C° 0.4 mm 4 mps 655 mmHg 91%
    19:00 +20°C° 0.4 mm 4 mps 655 mmHg 93%
    20:00 +19°C° 0.4 mm 4 mps 656 mmHg 95%
    21:00 +19°C° 0.3 mm 4 mps 656 mmHg 95%
    22:00 +19°C° 0.3 mm 4 mps 656 mmHg 96%
    23:00 +19°C° 0.3 mm 4 mps 656 mmHg 96%

    19 November, Monday

    Time Temperature Precipitation Wind Pressure Humidity
    00:00 +19°C° 0.1 mm 4 mps 656 mmHg 96%
    01:00 +19°C° 0.1 mm 4 mps 656 mmHg 96%
    02:00 +19°C° 0.1 mm 3 mps 655 mmHg 96%
    03:00 +19°C° 0.2 mm 3 mps 655 mmHg 96%
    04:00 +18°C° 0.2 mm 3 mps 655 mmHg 96%
    05:00 +18°C° 0.2 mm 3 mps 655 mmHg 96%
    06:00 +19°C° 0 mm 3 mps 656 mmHg 95%
    07:00 +19°C° 0 mm 3 mps 656 mmHg 93%
    08:00 +20°C° 0 mm 3 mps 657 mmHg 91%
    09:00 +21°C° 0 mm 3 mps 657 mmHg 83%
    10:00 +24°C° 0 mm 3 mps 657 mmHg 74%
    11:00 +25°C° 0 mm 3 mps 658 mmHg 66%
    12:00 +25°C° 0.3 mm 3 mps 657 mmHg 68%
    13:00 +25°C° 0.3 mm 4 mps 656 mmHg 70%
    14:00 +25°C° 0.3 mm 4 mps 655 mmHg 73%
    15:00 +23°C° 0.4 mm 4 mps 655 mmHg 77%
    16:00 +23°C° 0.4 mm 4 mps 655 mmHg 81%
    17:00 +22°C° 0.4 mm 4 mps 654 mmHg 85%
    18:00 +21°C° 0.2 mm 4 mps 654 mmHg 89%
    19:00 +20°C° 0.2 mm 4 mps 655 mmHg 92%
    20:00 +20°C° 0.2 mm 4 mps 655 mmHg 95%
    21:00 +20°C° 0.2 mm 4 mps 656 mmHg 95%
    22:00 +19°C° 0.2 mm 4 mps 656 mmHg 96%
    23:00 +19°C° 0.2 mm 4 mps 656 mmHg 96%

    20 November, Tuesday

    Time Temperature Precipitation Wind Pressure Humidity
    00:00 +19°C° 0.4 mm 4 mps 656 mmHg 96%
    01:00 +19°C° 0.4 mm 4 mps 655 mmHg 96%
    02:00 +19°C° 0.4 mm 4 mps 655 mmHg 96%
    03:00 +19°C° 0.3 mm 4 mps 655 mmHg 96%
    04:00 +19°C° 0.3 mm 4 mps 655 mmHg 96%
    05:00 +18°C° 0.3 mm 4 mps 655 mmHg 96%
    06:00 +19°C° 0.2 mm 4 mps 655 mmHg 95%
    07:00 +19°C° 0.2 mm 4 mps 656 mmHg 94%
    08:00 +19°C° 0.2 mm 4 mps 656 mmHg 92%
    09:00 +21°C° 0 mm 4 mps 657 mmHg 86%
    10:00 +22°C° 0 mm 4 mps 657 mmHg 80%
    11:00 +23°C° 0 mm 4 mps 657 mmHg 74%
    12:00 +23°C° 0.2 mm 4 mps 657 mmHg 73%
    13:00 +25°C° 0.2 mm 4 mps 656 mmHg 72%
    14:00 +25°C° 0.2 mm 4 mps 655 mmHg 71%
    15:00 +23°C° 0.3 mm 4 mps 655 mmHg 75%
    16:00 +23°C° 0.3 mm 4 mps 655 mmHg 78%
    17:00 +22°C° 0.3 mm 4 mps 654 mmHg 81%
    18:00 +21°C° 0.1 mm 4 mps 655 mmHg 85%
    19:00 +20°C° 0.1 mm 4 mps 655 mmHg 90%
    20:00 +20°C° 0.1 mm 4 mps 656 mmHg 94%
    21:00 +19°C° 0.2 mm 4 mps 656 mmHg 94%
    22:00 +19°C° 0.2 mm 4 mps 656 mmHg 95%
    23:00 +19°C° 0.2 mm 4 mps 656 mmHg 96%
    Show more